Location: ??
(34.7252°N, 135.5457°E)
Time: 08:04:39
(UTC+00:00)

Gbstr 26 Del rocket - Pass Details

Date: 24 September 2020
Orbit: 493 x 1264 km, 51.8° (Epoch: 28 October)

Event Time Altitude Azimuth Distance (km) Brightness Sun altitude
Exits shadow 19:13:05 10° 310° (NW) 3,183 6.3 -20.2°
Maximum altitude 19:20:57 74° 227° (SW) 1,197 4.3 -18.6°
Drops below altitude 10° 19:27:49 10° 144° (SE) 2,802 6.7 -17.2°
Sets 19:30:15 0° 142° (SE) 3,644 7.4 -16.7°
